User: anonymous
Location: Bonny Doon Airfield
(37.0704°N, 122.1252°W)
Time: 07:02:03
(UTC-07:00)
Language:

BREEZE M DEB (TANK) - Orbit

View from above orbital plane
View from above orbital plane
View from above satellite
View from above satellite

Ground track
Ground track

The orbit data is extracted from the following two-line orbital elements,

1 33437U 08057B   14232.39812676  .00001157  00000-0  38636-3 0   763
2 33437 049.5800 045.3798 5007322 048.4532 008.8448 05.55827427116217
Epoch (UTC): 20 August 2014 09:33:18
Eccentricity: 0.5007322
inclination: 49.5800°
perigee height: 343 km
apogee height: 13824 km
right ascension of ascending node: 45.3798°
argument of perigee: 48.4532°
revolutions per day: 5.55827427
mean anomaly at epoch: 8.8448°
orbit number at epoch: 11621

The dashed part of the orbit path shows where the satellite is in the earth's shadow,  

DLR